Location: Songkhla
(7.2000°N, 100.6000°E)
Time: 03:21:18
(UTC+07:00)

BRICSAT 2 - Pass Details

Date: 25 June 2021
Orbit: 295 x 638 km, 28.5° (Epoch: 28 July)

Event Time Altitude Azimuth Distance (km) Brightness Sun altitude
Rises 09:26:01 0° 253° (WSW) 2,336 ? 45.2°
Reaches altitude 10° 09:28:21 10° 262° (W) 1,404 ? 45.7°
Maximum altitude 09:31:18 36° 330° (NNW) 582 ? 46.4°
Drops below altitude 10° 09:33:57 10° 40° (NE) 1,256 ? 47.0°
Sets 09:35:56 0° 50° (NE) 2,044 ? 47.4°
